User: anonymous   Login
Location: Unspecified
(0.0000°N, 0.0000°E)
Time: 07:59:23
(UTC+02:00)
Language:

Meteor 1-10 Rocket - Orbit

View from above orbital plane
View from above orbital plane
View from above satellite
View from above satellite

Ground track
Ground track

The orbit data is extracted from the following two-line orbital elements,

1 05732U 71120B   16179.31876927  .00000099  00000-0  52308-4 0  9995
2 05732  81.2523 105.9348 0051167 322.0618  37.6950 14.05919241289063
Epoch (UTC): 27 June 2016 07:39:01
Eccentricity: 0.0051167
inclination: 81.2523°
perigee height: 836 km
apogee height: 910 km
right ascension of ascending node: 105.9348°
argument of perigee: 322.0618°
revolutions per day: 14.05919241
mean anomaly at epoch: 37.6950°
orbit number at epoch: 28906

The dashed part of the orbit path shows where the satellite is in the earth's shadow,  

DLR